sat.trackr.live / text

‹ back to catalog

ONEWEB-0560

NORAD 55145 · 2023-004F

PAYLOAD ACTIVE UNKNOWN

§ Identity

Operator
Country
UK
Launch date
2023-01-10
Launch site
AFETR
Launch vehicle
Mass (kg)
RCS (m²)

Purposes: comms

External: N2YO · Heavens-Above · Gunter

§ Orbital elements

Epoch: 2026-05-25T02:00:51.325632Z

Period
109.20 min
Inclination
87.9161°
Eccentricity
0.0001559
Mean motion
13.18685037 rev/d
Perigee alt
1,188.6 km
Apogee alt
1,190.9 km
Semi-major
7,567.9 km
B*
-3.6458e-5
RAAN
340.0582°
Arg perigee
84.0427°
Mean anomaly
276.0883°
Rev number
16,666

§ Raw data

ONEWEB-05601 55145U 23004F   26145.08392738 -.00000001  00000+0 -36458-4 0  99992 55145  87.9161 340.0582 0001559  84.0427 276.0883 13.18685037166662

JSON: /api/v1/satellites/55145 · /tle

For live sub-satellite position, see the globe view (requires WebGL).

§ Visibility from observer

Set your observer location to see the next 7 days of passes ≥ 10°. The values pass through the URL so the page stays shareable.

No JS? Fill the form by hand. The geolocation button needs JavaScript.